Location: Newark
(51.2625°N, 13.3939°E)
Time: 05:17:03
(UTC+00:00)

deb Explorer IX - Pass Details

Date: 19 November 2019
Orbit: 546 x 1104 km, 38.8° (Epoch: 12 December)

Event Time Altitude Azimuth Distance (km) Brightness Sun altitude
Rises 00:27:20 0° 221° (SW) 3,673 - -52.9°
Reaches altitude 10° 00:30:59 10° 204° (SSW) 2,620 - -52.6°
Maximum altitude 00:34:57 18° 164° (SSE) 2,001 - -52.2°
Drops below altitude 10° 00:38:35 10° 124° (SE) 2,366 - -51.8°
Sets 00:41:39 0° 105° (ESE) 3,182 - -51.5°
